This is the latest recevied weather packets stored in our database for station/object WX0ABE-13. If no packets are shown the sender has not sent any weather packets the latest 10 day(s).
| Time | Temp. | Humidity | Pressure | Rain* | Wind** | Luminosity | Snow |
|---|---|---|---|---|---|---|---|
| 1788021753 | 29.44° C | 45% | 1016.2 hPa | 0 mm | - | 462 W/m² | - |
| 1788021452 | 28.89° C | 43% | 1016.3 hPa | 0 mm | - | 220 W/m² | - |
| 1788021152 | 29.44° C | 42% | 1016.4 hPa | 0 mm | - | 180 W/m² | - |
| 1788020847 | 30° C | 41% | 1016.4 hPa | 0 mm | - | 186 W/m² | - |
| 1788020544 | 30° C | 40% | 1016.2 hPa | 0 mm | - | 218 W/m² | - |
| 1788020238 | 30.56° C | 40% | 1016.3 hPa | 0 mm | - | 222 W/m² | - |
| 1788019934 | 30.56° C | 37% | 1016.4 hPa | 0 mm | - | 229 W/m² | - |
| 1788019628 | 30° C | 41% | 1016.2 hPa | 0 mm | - | 516 W/m² | - |
| 1788019328 | 30° C | 41% | 1016.4 hPa | 0 mm | - | 389 W/m² | - |
| 1788019026 | 30° C | 41% | 1016.4 hPa | 0 mm | - | 531 W/m² | - |
| 1788018721 | 28.89° C | 41% | 1016.3 hPa | 0 mm | - | 500 W/m² | - |
| 1788018421 | 28.89° C | 41% | 1016.2 hPa | 0 mm | - | 271 W/m² | - |
| 1788018115 | 28.89° C | 42% | 1016.2 hPa | 0 mm | - | 435 W/m² | - |
| 1788017812 | 27.78° C | 44% | 1016.4 hPa | 0 mm | - | 417 W/m² | - |
| 1788017508 | 27.22° C | 44% | 1016.2 hPa | 0 mm | - | 330 W/m² | - |
| 1788017204 | 26.67° C | 47% | 1016.4 hPa | 0 mm | - | 317 W/m² | - |
| 1788016904 | 26.11° C | 47% | 1016.2 hPa | 0 mm | - | 340 W/m² | - |
| 1788016602 | 25.56° C | 50% | 1016.5 hPa | 0 mm | - | 318 W/m² | - |
| 1788016297 | 25.56° C | 51% | 1016.4 hPa | 0 mm | - | 289 W/m² | - |
| 1788015997 | 25° C | 52% | 1016.2 hPa | 0 mm | - | 131 W/m² | - |
| 1788015691 | 25.56° C | 51% | 1016.4 hPa | 0 mm | - | 148 W/m² | - |
| 1788015386 | 25° C | 52% | 1016.3 hPa | 0 mm | - | 116 W/m² | - |
| 1788015086 | 24.44° C | 53% | 1016.5 hPa | 0 mm | - | 103 W/m² | - |
| 1788014784 | 24.44° C | 54% | 1016.4 hPa | 0 mm | - | 98 W/m² | - |
| 1788014480 | 23.89° C | 55% | 1016.4 hPa | 0 mm | - | 121 W/m² | - |
* Rain latest hour (hover to see other rain measurements)
** Current wind speed in m/s (hover to see current wind gust speed)